Location: Augsburg
(48.3836°N, 10.8929°E)
Time: 04:30:17
(UTC+01:00)

ISS - Pass Details

Date: 10 January 2018
Orbit: 401 x 406 km, 51.6° (Epoch: 17 January)

Event Time Altitude Azimuth Distance (km) Brightness Sun altitude
Exits shadow 05:00:03 13° 75° (ENE) 1,280 -0.5 -30.0°
Drops below altitude 10° 05:00:32 10° 78° (ENE) 1,466 -0.1 -29.9°
Sets 05:02:40 0° 85° (E) 2,327 1.2 -29.6°
